Location: Zagreb
(45.8000°N, 16.0000°E)
Time: 15:41:04
(UTC+02:00)

Transit 2A - Pass Details

Date: 10 August 2022
Orbit: 601 x 956 km, 66.7° (Epoch: 25 September)

Event Time Altitude Azimuth Distance (km) Brightness Sun altitude
Rises 21:37:43 0° 324° (NW) 2,859 10.6 -13.5°
Reaches altitude 10° 21:39:57 10° 322° (NW) 1,958 9.5 -13.8°
Maximum altitude 21:44:16 66° 240° (WSW) 678 5.8 -14.4°
Enters shadow 21:47:19 20° 163° (SSE) 1,468 7.0 -14.8°
Drops below altitude 10° 21:48:47 10° 159° (SSE) 2,040 - -15.0°
Sets 21:51:09 0° 157° (SSE) 2,991 - -15.3°
